{"data":{"norad_id":66347,"intl_designator":"2025-253AE","name":"STARLINK-35438","alt_names":[],"object_type":"PAYLOAD","status":"ACTIVE","operator":null,"country":"US","launch_date":"2025-11-06","launch_site_code":"AFETR","launch_vehicle":null,"mission":null,"orbit_class":"UNKNOWN","rcs_meters":null,"size_class":null,"mass_kg":null,"dimensions":null,"purposes":["comms"],"wikipedia_slug":null,"has_3d_model":false,"image_url":null,"decayed_at":null,"tle_current":{"epoch":"2026-09-20T02:53:34.183392Z","epoch_age_seconds":126207,"freshness":"FRESH","line1":"1 66347U 25253AE  26263.12053453  .00012975  00000+0  48045-3 0  9992","line2":"2 66347  43.0012 194.1555 0001142 262.1141  97.9581 15.27561488 49989","mean_motion":15.27561488,"eccentricity":0.0001142,"inclination_deg":43.0012,"raan_deg":194.1555,"arg_perigee_deg":262.1141,"mean_anomaly_deg":97.9581,"bstar":0.00048045,"rev_number":4998,"period_min":94.267891100433,"perigee_km":482.32097440459,"apogee_km":483.88808196963,"semimajor_km":6861.2415281871,"source":"CELESTRAK","updated_at":"2026-09-21T09:00:35.878732Z"}}}